Location: 22
(39.7117°N, 89.5929°W)
Time: 06:44:23
(UTC-05:00)

ISS - Pass Details

Date: 01 October 2021
Orbit: 417 x 423 km, 51.6° (Epoch: 16 October)

Event Time Altitude Azimuth Distance (km) Brightness Sun altitude
Rises 21:02:41 0° 307° (NW) 2,364 1.2 -27.8°
Reaches altitude 10° 21:04:47 10° 307° (NW) 1,499 -0.1 -28.2°
Enters shadow 21:05:49 19° 307° (NW) 1,083 -1.0 -28.4°
